Preview of NWS' New Version of Forecast
This preview is not operational and should not be used for support decisions.

Regional Weather Roundup (RWR)

Issued by National Weather Service (NWS)

                            
000
ASUS44 KJAN 180210
RWRMS 

MISSISSIPPI HOURLY WEATHER ROUNDUP
NATIONAL WEATHER SERVICE JACKSON MS
800 PM CST SUN FEB 17 2019

NOTE: "FAIR: INDICATES FEW OR NO CLOUDS BELOW 12,000 FEET WITH NO
SIGNIFICANT WEATHER AND/OR OBSTRUCTIONS TO VISIBILITY.

MSZ001>002-007>008-010>013-018>021-025>028-034>036-180300-
NORTHWEST MISSISSIPPI
  
CITY           SKY/WX    TMP DP  RH WIND       PRES   REMARKS
BATESVILLE     FAIR      41  41 100 NW3       30.00R                  
CLARKSDALE       N/A     43  43 100 N6        30.02R                  
CLEVELAND      CLOUDY    42  42 100 NW5       30.01R                  
GREENWOOD      CLOUDY    44  42  93 N7        29.98R                  
GREENVILLE     FAIR      43  39  86 NW9       30.00R                  
OLIVE BRANCH   CLOUDY    41  34  75 NW12      30.01R                  
OXFORD         FAIR      41  39  93 NW7       30.00S                  
TUNICA           N/A     37  34  87 N8        30.03R WCI  31          
WINONA         RAIN      43  42  99 N7        29.96F                  
$$

MSZ003>006-009-014>017-022>024-029>033-037>039-180300-
NORTHEAST MISSISSIPPI
  
CITY           SKY/WX    TMP DP  RH WIND       PRES   REMARKS
ABERDEEN       CLOUDY    45  45 100 N7        29.96R                  
COLUMBUS AFB   CLOUDY    47  45  92 N6        29.95R                  
CORINTH        MOCLDY    43  41  93 NW7       29.97R                  
GOLDN TRIANGLE CLOUDY    47  45  93 NW10      29.96R                  
STARKVILLE     CLOUDY    45  43  93 N7        29.97R                  
TUPELO         LGT RAIN  44  41  89 NW7       29.97R                  
$$

MSZ040-058-180300-
CENTRAL MISSISSIPPI
  
CITY           SKY/WX    TMP DP  RH WIND       PRES   REMARKS
JACKSON INTL   CLOUDY    46  44  93 N7        29.96R                  
JACKSON HAWKNS CLOUDY    46  45  96 N3        29.97R                  
MADISON        CLOUDY    43  43 100 N3        29.97R                  
MERIDIAN KEY   CLOUDY   N/A N/A N/A N10       29.94R                  
MERIDIAN NAS   CLOUDY    54  52  93 N12       29.95R                  
RAYMOND          N/A     46  46 100 CALM      29.97R                  
VICKSBURG VKS  CLOUDY    45  45 100 N5        29.99R                  
$$

MSZ059>079-180300-
SOUTH MISSISSIPPI
  
CITY           SKY/WX    TMP DP  RH WIND       PRES   REMARKS
HATTIESBURG    CLOUDY    60  51  72 N13G20    29.91R                  
LAUREL         CLOUDY    56  50  81 N8        29.93R                  
MCCOMB         CLOUDY    54  47  77 N10       29.93R                  
NATCHEZ        LGT RAIN  45  42  89 N12       29.98R                  
PINE BELT      LGT RAIN  56  52  86 N10       29.93R                  
$$

MSZ080>082-180300-
COASTAL MISSISSIPPI
  
CITY           SKY/WX    TMP DP  RH WIND       PRES   REMARKS
BAY ST LOUIS   MOCLDY    70  68  94 SW7       29.86R                  
BILOXI         MOCLDY    67  66  97 S8        29.86R                  
PASCAGOULA     MOCLDY    72  67  84 S3        29.87R                  
GULFPORT       CLOUDY    69  67  93 S5        29.85R                  
$$

LAZ007>009-015>016-023>026-180300-
NORTHEAST LOUISIANA
  
CITY           SKY/WX    TMP DP  RH WIND       PRES   REMARKS
BASTROP        FAIR      41  40  98 CALM      30.02R                  
TALLULAH/VBURG CLOUDY    45  40  82 N7        30.00R                  
VIDALIA        CLOUDY    47  44  90 N7        29.98R                  
$$